• en France
  • Liste des pays
  • À 7 jours
  • Température de l'eau
  • Carte satellitaire
  • Carte météo
  • Widgets météo
  • user-avatar
    Se connecter

    Météo par heure à Hidib

    Ce jour, 19 Août, Dimanche

    Heure Température Précipitation Vent Pression Humidité
    00:00 +13°C° 0,2 mm 1 m/s 605 mmHg 85%
    01:00 +12°C° 0,3 mm 1 m/s 605 mmHg 85%
    02:00 +12°C° 0,3 mm 1 m/s 604 mmHg 86%
    03:00 +12°C° 0,3 mm 1 m/s 604 mmHg 87%
    04:00 +12°C° 0,3 mm 1 m/s 605 mmHg 85%
    05:00 +12°C° 0,3 mm 1 m/s 605 mmHg 83%
    06:00 +12°C° 0,3 mm 1 m/s 605 mmHg 82%
    07:00 +13°C° 0,2 mm 2 m/s 605 mmHg 75%
    08:00 +15°C° 0,2 mm 2 m/s 606 mmHg 67%
    09:00 +16°C° 0,2 mm 2 m/s 607 mmHg 60%
    10:00 +17°C° 0,1 mm 2 m/s 607 mmHg 59%
    11:00 +17°C° 0,1 mm 2 m/s 607 mmHg 57%
    12:00 +18°C° 0,1 mm 2 m/s 607 mmHg 56%
    13:00 +18°C° 0,2 mm 2 m/s 607 mmHg 58%
    14:00 +18°C° 0,2 mm 2 m/s 607 mmHg 60%
    15:00 +17°C° 0,2 mm 2 m/s 607 mmHg 61%
    16:00 +17°C° 0,1 mm 2 m/s 607 mmHg 65%
    17:00 +16°C° 0,1 mm 2 m/s 607 mmHg 69%
    18:00 +15°C° 0,1 mm 2 m/s 606 mmHg 73%
    19:00 +14°C° 0 mm 2 m/s 606 mmHg 77%
    20:00 +13°C° 0 mm 1 m/s 606 mmHg 80%
    21:00 +12°C° 0 mm 1 m/s 606 mmHg 84%
    22:00 +12°C° 0 mm 1 m/s 606 mmHg 84%
    23:00 +11°C° 0 mm 1 m/s 606 mmHg 85%

    Demain, 20 Août, Lundi

    Heure Température Précipitation Vent Pression Humidité
    00:00 +11°C° 0 mm 1 m/s 606 mmHg 86%
    01:00 +10°C° 0 mm 1 m/s 606 mmHg 85%
    02:00 +10°C° 0 mm 1 m/s 606 mmHg 85%
    03:00 +9°C° 0 mm 1 m/s 606 mmHg 85%
    04:00 +10°C° 0 mm 1 m/s 606 mmHg 84%
    05:00 +10°C° 0 mm 1 m/s 606 mmHg 83%
    06:00 +10°C° 0 mm 1 m/s 607 mmHg 82%
    07:00 +12°C° 0 mm 1 m/s 608 mmHg 75%
    08:00 +14°C° 0 mm 1 m/s 609 mmHg 69%
    09:00 +16°C° 0 mm 2 m/s 610 mmHg 63%
    10:00 +17°C° 0 mm 2 m/s 610 mmHg 60%
    11:00 +17°C° 0 mm 2 m/s 610 mmHg 58%
    12:00 +18°C° 0 mm 2 m/s 610 mmHg 55%
    13:00 +18°C° 0 mm 2 m/s 610 mmHg 56%
    14:00 +18°C° 0 mm 2 m/s 610 mmHg 57%
    15:00 +18°C° 0 mm 2 m/s 610 mmHg 57%
    16:00 +17°C° 0 mm 2 m/s 609 mmHg 60%
    17:00 +16°C° 0 mm 2 m/s 609 mmHg 63%
    18:00 +16°C° 0 mm 2 m/s 609 mmHg 66%
    19:00 +14°C° 0 mm 2 m/s 608 mmHg 68%
    20:00 +12°C° 0 mm 2 m/s 608 mmHg 71%
    21:00 +10°C° 0 mm 2 m/s 607 mmHg 73%
    22:00 +9°C° 0 mm 2 m/s 607 mmHg 73%
    23:00 +9°C° 0 mm 2 m/s 607 mmHg 72%

    Après-demain, 21 Août, Mardi

    Heure Température Précipitation Vent Pression Humidité
    00:00 +9°C° 0 mm 2 m/s 607 mmHg 71%
    01:00 +9°C° 0 mm 2 m/s 606 mmHg 73%
    02:00 +9°C° 0 mm 2 m/s 606 mmHg 74%
    03:00 +9°C° 0 mm 2 m/s 606 mmHg 75%
    04:00 +9°C° 0,3 mm 2 m/s 606 mmHg 76%
    05:00 +10°C° 0,3 mm 2 m/s 607 mmHg 77%
    06:00 +10°C° 0,3 mm 2 m/s 607 mmHg 79%
    07:00 +13°C° 0,1 mm 2 m/s 608 mmHg 72%
    08:00 +15°C° 0,1 mm 2 m/s 608 mmHg 65%
    09:00 +17°C° 0,1 mm 2 m/s 609 mmHg 58%
    10:00 +18°C° 0 mm 2 m/s 609 mmHg 55%
    11:00 +19°C° 0 mm 2 m/s 609 mmHg 52%
    12:00 +21°C° 0 mm 2 m/s 610 mmHg 49%
    13:00 +20°C° 0,5 mm 2 m/s 609 mmHg 50%
    14:00 +20°C° 0,5 mm 2 m/s 609 mmHg 52%
    15:00 +20°C° 0,5 mm 2 m/s 609 mmHg 53%
    16:00 +19°C° 0,2 mm 2 m/s 608 mmHg 58%
    17:00 +19°C° 0,2 mm 1 m/s 608 mmHg 62%
    18:00 +18°C° 0,2 mm 1 m/s 608 mmHg 67%
    19:00 +16°C° 0,3 mm 1 m/s 607 mmHg 70%
    20:00 +14°C° 0,3 mm 1 m/s 607 mmHg 73%
    21:00 +12°C° 0,3 mm 1 m/s 607 mmHg 76%
    22:00 +12°C° 0 mm 1 m/s 606 mmHg 75%
    23:00 +12°C° 0 mm 1 m/s 606 mmHg 73%

    22 Août, Mercredi

    Heure Température Précipitation Vent Pression Humidité
    00:00 +12°C° 0 mm 1 m/s 606 mmHg 71%
    01:00 +11°C° 0 mm 1 m/s 606 mmHg 70%
    02:00 +11°C° 0 mm 1 m/s 606 mmHg 69%
    03:00 +11°C° 0 mm 1 m/s 606 mmHg 68%
    04:00 +11°C° 0 mm 1 m/s 606 mmHg 67%
    05:00 +12°C° 0 mm 1 m/s 606 mmHg 66%
    06:00 +12°C° 0 mm 1 m/s 606 mmHg 66%
    07:00 +14°C° 0 mm 1 m/s 607 mmHg 61%
    08:00 +18°C° 0 mm 1 m/s 608 mmHg 56%
    09:00 +20°C° 0 mm 1 m/s 609 mmHg 51%
    10:00 +20°C° 0,1 mm 2 m/s 609 mmHg 50%
    11:00 +20°C° 0,1 mm 2 m/s 609 mmHg 49%
    12:00 +21°C° 0,1 mm 2 m/s 609 mmHg 48%
    13:00 +21°C° 0,4 mm 2 m/s 609 mmHg 49%
    14:00 +21°C° 0,4 mm 2 m/s 609 mmHg 50%
    15:00 +21°C° 0,4 mm 2 m/s 609 mmHg 52%
    16:00 +20°C° 0,3 mm 2 m/s 609 mmHg 56%
    17:00 +20°C° 0,3 mm 1 m/s 608 mmHg 61%
    18:00 +19°C° 0,3 mm 1 m/s 608 mmHg 66%
    19:00 +16°C° 0 mm 1 m/s 608 mmHg 70%
    20:00 +15°C° 0 mm 1 m/s 608 mmHg 74%
    21:00 +13°C° 0 mm 1 m/s 607 mmHg 79%
    22:00 +13°C° 0 mm 1 m/s 607 mmHg 79%
    23:00 +13°C° 0 mm 1 m/s 607 mmHg 79%

    23 Août, Jeudi

    Heure Température Précipitation Vent Pression Humidité
    00:00 +12°C° 0 mm 1 m/s 607 mmHg 79%
    01:00 +12°C° 0 mm 1 m/s 607 mmHg 79%
    02:00 +12°C° 0 mm 1 m/s 607 mmHg 78%
    03:00 +11°C° 0 mm 1 m/s 607 mmHg 78%
    04:00 +12°C° 0 mm 1 m/s 607 mmHg 78%
    05:00 +12°C° 0 mm 1 m/s 607 mmHg 78%
    06:00 +12°C° 0 mm 1 m/s 608 mmHg 77%
    07:00 +14°C° 0 mm 1 m/s 608 mmHg 71%
    08:00 +16°C° 0 mm 1 m/s 609 mmHg 64%
    09:00 +18°C° 0 mm 2 m/s 610 mmHg 57%
    10:00 +19°C° 0,1 mm 2 m/s 610 mmHg 55%
    11:00 +19°C° 0,1 mm 2 m/s 610 mmHg 54%
    12:00 +20°C° 0,1 mm 2 m/s 610 mmHg 52%
    13:00 +20°C° 0,4 mm 2 m/s 610 mmHg 51%
    14:00 +20°C° 0,4 mm 2 m/s 610 mmHg 50%
    15:00 +20°C° 0,4 mm 2 m/s 610 mmHg 50%
    16:00 +19°C° 0,2 mm 2 m/s 610 mmHg 54%
    17:00 +18°C° 0,2 mm 2 m/s 609 mmHg 57%
    18:00 +18°C° 0,2 mm 1 m/s 609 mmHg 61%
    19:00 +16°C° 0 mm 1 m/s 609 mmHg 64%
    20:00 +14°C° 0 mm 1 m/s 608 mmHg 67%
    21:00 +13°C° 0 mm 1 m/s 608 mmHg 70%
    22:00 +12°C° 0 mm 1 m/s 608 mmHg 67%
    23:00 +12°C° 0 mm 1 m/s 608 mmHg 65%

    24 Août, Vendredi

    Heure Température Précipitation Vent Pression Humidité
    00:00 +12°C° 0 mm 1 m/s 608 mmHg 63%
    01:00 +11°C° 0 mm 1 m/s 608 mmHg 63%
    02:00 +11°C° 0 mm 1 m/s 608 mmHg 64%
    03:00 +11°C° 0 mm 1 m/s 607 mmHg 64%
    04:00 +11°C° 0 mm 1 m/s 608 mmHg 65%
    05:00 +12°C° 0 mm 1 m/s 608 mmHg 65%
    06:00 +12°C° 0 mm 1 m/s 608 mmHg 66%
    07:00 +14°C° 0 mm 1 m/s 609 mmHg 60%
    08:00 +16°C° 0 mm 2 m/s 610 mmHg 54%
    09:00 +19°C° 0 mm 2 m/s 611 mmHg 49%
    10:00 +20°C° 0 mm 2 m/s 611 mmHg 47%
    11:00 +20°C° 0 mm 2 m/s 611 mmHg 46%
    12:00 +21°C° 0 mm 2 m/s 611 mmHg 44%
    13:00 +21°C° 0 mm 2 m/s 611 mmHg 46%
    14:00 +21°C° 0 mm 2 m/s 611 mmHg 47%
    15:00 +21°C° 0 mm 2 m/s 610 mmHg 48%
    16:00 +20°C° 0 mm 2 m/s 610 mmHg 53%
    17:00 +19°C° 0 mm 2 m/s 610 mmHg 58%
    18:00 +18°C° 0 mm 1 m/s 609 mmHg 62%
    19:00 +16°C° 0 mm 2 m/s 609 mmHg 62%
    20:00 +14°C° 0 mm 2 m/s 608 mmHg 61%
    21:00 +13°C° 0 mm 2 m/s 608 mmHg 60%
    22:00 +13°C° 0 mm 2 m/s 608 mmHg 59%
    23:00 +12°C° 0 mm 2 m/s 607 mmHg 58%
    Voir plus